| time (UTC) | temp C | wind direction | speed KPH | gust KPH | rain 1hr cm | rain 24hr cm | rain mn cm | humidity % | barometer mb |
| 20260503224016 | 25 | 341 | 6.4 | 9.7 | 0.00 | 0.00 | 0.00 | 46 | 1012.2 |
| 20260503223017 | 25 | 343 | 6.4 | 12.9 | 0.00 | 0.00 | 0.00 | 46 | 1012.3 |
| 20260503222016 | 25 | 353 | 6.4 | 12.9 | 0.00 | 0.00 | 0.00 | 46 | 1012.4 |
| 20260503221016 | 25 | 344 | 8.0 | 19.3 | 0.00 | 0.00 | 0.00 | 44 | 1012.6 |
| 20260503220016 | 25 | 341 | 6.4 | 14.5 | 0.00 | 0.00 | 0.00 | 44 | 1012.9 |
| 20260503215016 | -17 | 0.0 | 0.0 | 0.00 | 0.00 | 0.00 | |||
| 20260503214018 | 25 | 358 | 6.4 | 14.5 | 0.00 | 0.00 | 0.00 | 44 | 1013.7 |
| 20260503213037 | -17 | 0.0 | 0.0 | 0.00 | 0.00 | 0.00 | |||
| 20260503212037 | -17 | 0.0 | 0.0 | 0.00 | 0.00 | 0.00 | |||
| 20260503211018 | -17 | 0.0 | 0.0 | 0.00 | 0.00 | 0.00 | |||
| 20260503210018 | -17 | 0.0 | 0.0 | 0.00 | 0.00 | 0.00 | |||
| 20260503205038 | -17 | 0.0 | 0.0 | 0.00 | 0.00 | 0.00 | |||
| 20260503204017 | 25 | 337 | 4.8 | 12.9 | 0.00 | 0.00 | 0.00 | 46 | 1016.2 |
| 20260503203018 | 25 | 331 | 6.4 | 12.9 | 0.00 | 0.00 | 0.00 | 47 | 1016.3 |
| 20260503202019 | -17 | 0.0 | 0.0 | 0.00 | 0.00 | 0.00 | |||
| 20260503201018 | -17 | 0.0 | 0.0 | 0.00 | 0.00 | 0.00 | |||
| 20260503200019 | -17 | 0.0 | 0.0 | 0.00 | 0.00 | 0.00 | |||
| 20260503195015 | -17 | 0.0 | 0.0 | 0.00 | 0.00 | 0.00 | |||
| 20260503194016 | -17 | 0.0 | 0.0 | 0.00 | 0.00 | 0.00 | |||
| 20260503193017 | -17 | 0.0 | 0.0 | 0.00 | 0.00 | 0.00 | |||
| 20260503192016 | 23 | 335 | 4.8 | 11.3 | 0.00 | 0.00 | 0.00 | 49 | 1016.1 |
| 20260503191017 | 23 | 341 | 4.8 | 12.9 | 0.00 | 0.00 | 0.00 | 47 | 1016.4 |
| 20260503190016 | 23 | 9 | 3.2 | 9.7 | 0.00 | 0.00 | 0.00 | 47 | 1016.5 |
| 20260503185017 | 22 | 2 | 4.8 | 11.3 | 0.00 | 0.00 | 0.00 | 48 | 1016.6 |
| 20260503184037 | 22 | 348 | 4.8 | 12.9 | 0.00 | 0.00 | 0.00 | 48 | 1016.7 |
| 20260503183037 | -17 | 0.0 | 0.0 | 0.00 | 0.00 | 0.00 | |||
| 20260503182017 | 21 | 345 | 6.4 | 14.5 | 0.00 | 0.00 | 0.00 | 50 | 1016.7 |
| 20260503181017 | 21 | 340 | 8.0 | 17.7 | 0.00 | 0.00 | 0.00 | 52 | 1017.0 |
| 20260503180017 | -17 | 0.0 | 0.0 | 0.00 | 0.00 | 0.00 | |||
| 20260503175018 | 21 | 344 | 4.8 | 11.3 | 0.00 | 0.00 | 0.00 | 53 | 1017.4 |
| 20260503174017 | -17 | 0.0 | 0.0 | 0.00 | 0.00 | 0.00 | |||
| 20260503173018 | 21 | 334 | 8.0 | 14.5 | 0.00 | 0.00 | 0.00 | 53 | 1017.9 |
| 20260503172016 | 21 | 349 | 4.8 | 12.9 | 0.00 | 0.00 | 0.00 | 54 | 1018.3 |
| 20260503171016 | 21 | 327 | 4.8 | 11.3 | 0.00 | 0.00 | 0.00 | 57 | 1018.7 |
| 20260503131036 | 11 | 277 | 0.0 | 1.6 | 0.00 | 0.00 | 0.00 | 85 | 1012.4 |
| 20260503081018 | -17 | 0.0 | 0.0 | 0.00 | 0.00 | 0.00 | |||
| 20260503072016 | 15 | 322 | 0.0 | 3.2 | 0.00 | 0.05 | 0.00 | 64 | 1010.0 |
| 20260503071037 | 15 | 0.0 | 0.0 | 0.00 | 0.05 | 0.00 | 64 | 1009.9 | |
| 20260503055018 | 16 | 273 | 0.0 | 3.2 | 0.00 | 0.05 | 0.05 | 61 | 1009.2 |
| 20260503054038 | -17 | 0.0 | 0.0 | 0.00 | 0.05 | 0.05 | |||
| 20260503053019 | -17 | 0.0 | 0.0 | 0.00 | 0.05 | 0.05 | |||
| 20260503052018 | -17 | 0.0 | 0.0 | 0.00 | 0.05 | 0.05 | |||
| 20260503051038 | -17 | 0.0 | 0.0 | 0.00 | 0.05 | 0.05 | |||
| 20260503050019 | -17 | 0.0 | 0.0 | 0.00 | 0.05 | 0.05 | |||
| 20260503045018 | -17 | 0.0 | 0.0 | 0.00 | 0.05 | 0.05 | |||
| 20260503044018 | 18 | 235 | 0.0 | 1.6 | 0.00 | 0.05 | 0.05 | 55 | 1009.4 |
| 20260503043015 | 18 | 296 | 0.0 | 1.6 | 0.00 | 0.05 | 0.05 | 54 | 1009.4 |
| 20260503042016 | 18 | 0.0 | 0.0 | 0.00 | 0.05 | 0.05 | 54 | 1009.3 | |
| 20260503041016 | 18 | 275 | 1.6 | 4.8 | 0.00 | 0.05 | 0.05 | 54 | 1009.3 |
| 20260503040017 | 18 | 299 | 0.0 | 1.6 | 0.00 | 0.05 | 0.05 | 53 | 1009.3 |
| 20260503035037 | -17 | 0.0 | 0.0 | 0.00 | 0.05 | 0.05 | |||
| 20260503034037 | 20 | 291 | 0.0 | 1.6 | 0.00 | 0.05 | 0.05 | 50 | 1009.7 |
| 20260503033037 | -17 | 0.0 | 0.0 | 0.00 | 0.05 | 0.05 | |||
| 20260503032017 | -17 | 0.0 | 0.0 | 0.00 | 0.05 | 0.05 | |||
| 20260503031018 | 20 | 336 | 4.8 | 12.9 | 0.00 | 0.05 | 0.05 | 48 | 1010.2 |
| 20260503030017 | -17 | 0.0 | 0.0 | 0.00 | 0.05 | 0.05 | |||
| 20260503025017 | -17 | 0.0 | 0.0 | 0.00 | 0.05 | 0.05 | |||
| 20260503024017 | -17 | 0.0 | 0.0 | 0.00 | 0.05 | 0.05 | |||
| 20260503023019 | 21 | 350 | 4.8 | 11.3 | 0.00 | 0.05 | 0.05 | 47 | 1011.0 |
| 20260503022038 | -17 | 0.0 | 0.0 | 0.00 | 0.05 | 0.05 | |||
| 20260503021018 | -17 | 0.0 | 0.0 | 0.00 | 0.05 | 0.05 | |||
| 20260503020016 | 21 | 338 | 9.7 | 17.7 | 0.00 | 0.05 | 0.05 | 48 | 1011.6 |
| 20260503015015 | 22 | 345 | 9.7 | 17.7 | 0.00 | 0.05 | 0.05 | 50 | 1012.0 |
| 20260503014016 | 22 | 340 | 9.7 | 17.7 | 0.00 | 0.05 | 0.05 | 50 | 1012.4 |
| 20260503013016 | 22 | 345 | 9.7 | 17.7 | 0.00 | 0.05 | 0.05 | 51 | 1012.9 |
| 20260503012057 | 22 | 349 | 9.7 | 16.1 | 0.00 | 0.05 | 0.05 | 53 | 1013.3 |
| 20260503011017 | 23 | 353 | 8.0 | 16.1 | 0.00 | 0.05 | 0.05 | 54 | 1013.6 |
| 20260503010017 | -17 | 0.0 | 0.0 | 0.00 | 0.05 | 0.05 | |||
| 20260503005017 | 23 | 335 | 4.8 | 8.0 | 0.00 | 0.05 | 0.05 | 57 | 1014.1 |
| 20260503004018 | -17 | 0.0 | 0.0 | 0.00 | 0.05 | 0.05 | |||
| 20260503003017 | -17 | 0.0 | 0.0 | 0.00 | 0.05 | 0.05 | |||
| 20260503002037 | -17 | 0.0 | 0.0 | 0.00 | 0.05 | 0.05 | |||
| 20260503001018 | 23 | 344 | 4.8 | 9.7 | 0.00 | 0.05 | 0.05 | 57 | 1014.9 |
| 20260503000017 | 23 | 351 | 6.4 | 16.1 | 0.00 | 0.05 | 0.05 | 55 | 1015.0 |
| 20260502235017 | 23 | 338 | 4.8 | 11.3 | 0.00 | 0.05 | 0.05 | 55 | 1015.3 |
| 20260502234017 | 23 | 351 | 6.4 | 12.9 | 0.00 | 0.05 | 0.05 | 55 | 1015.4 |
| 20260502233017 | 23 | 350 | 6.4 | 12.9 | 0.00 | 0.05 | 0.05 | 55 | 1015.8 |
| 20260502232018 | 23 | 348 | 4.8 | 14.5 | 0.00 | 0.05 | 0.05 | 55 | 1016.1 |
| 20260502231018 | -17 | 0.0 | 0.0 | 0.00 | 0.05 | 0.05 | |||
| 20260502230016 | -17 | 0.0 | 0.0 | 0.00 | 0.05 | 0.05 |